GFSFLT1_850_thetae_102.txt.gz
Theta_e
340 340 343 344 345 345 345 345 344 343 342 342 342 342 338 336 343 344 345 345 345 346 346 344 344 343 344 344 341 344 343 340 339
342 340 340 343 343 344 345 345 344 344 343 342 342 343 342 338 342 343 343 343 345 347 346 345 345 343 345 343 341 340 343 343 343
346 342 341 342 341 342 344 344 344 344 344 343 343 343 343 341 340 341 342 344 345 346 345 346 346 344 345 346 348 343 340 341 340
345 346 344 343 342 343 342 343 342 344 344 345 342 345 344 342 340 340 344 345 346 346 346 347 345 346 347 348 348 345 342 344 342
342 343 345 345 346 345 342 342 343 344 345 345 343 344 346 344 342 341 342 343 344 341 345 345 345 345 347 346 345 346 343 344 343
343 344 342 344 345 346 345 344 345 346 345 345 344 344 343 342 344 342 338 339 338 341 340 345 345 345 346 346 345 344 343 343 345
339 340 343 345 346 346 345 344 343 339 341 344 342 340 343 342 344 344 343 340 340 340 342 342 346 343 345 347 348 347 346 343 343
336 338 340 341 343 344 345 340 334 336 335 342 342 343 343 342 342 342 342 342 342 341 341 342 341 342 343 349 348 349 348 344 343
334 335 336 338 342 342 344 344 344 343 342 341 342 342 343 340 338 341 340 340 340 341 341 342 343 343 342 341 342 344 347 347 346
331 331 334 335 338 339 339 339 339 341 341 340 340 340 341 342 342 338 337 336 336 339 339 340 341 342 343 345 344 344 345 345 344
329 329 330 333 334 335 336 336 337 337 338 339 338 338 339 339 339 340 339 336 334 336 337 339 339 338 338 341 342 343 343 343 343
330 330 329 330 330 331 331 332 332 334 334 334 335 335 336 336 338 337 335 336 334 337 337 338 339 337 338 339 340 340 341 342 343
328 328 330 329 326 325 325 324 323 324 324 325 325 325 326 328 331 334 335 336 334 332 331 335 336 337 338 339 339 339 340 341 342
323 324 327 329 326 325 324 323 322 321 319 318 316 315 315 316 318 320 319 319 319 320 324 328 330 336 335 335 336 335 337 335 337
321 322 322 322 321 319 318 316 315 313 313 312 312 312 312 312 312 312 312 313 315 317 322 324 327 331 333 330 326 326 326 328 324
320 320 319 319 318 316 314 314 313 312 311 311 310 309 309 310 310 311 311 311 311 313 316 319 321 322 325 325 325 323 321 321 322
319 318 318 317 316 315 315 313 310 308 306 305 305 305 306 307 309 310 311 312 312 312 312 313 314 315 316 316 316 316 317 317 317
318 317 316 315 315 314 313 310 306 304 304 304 305 305 305 305 305 306 306 307 308 309 310 311 312 312 313 313 313 313 313 312 312
320 317 316 315 315 313 309 306 304 304 303 304 304 304 303 303 303 302 302 302 302 302 303 303 303 303 304 305 305 305 305 306 306
317 315 315 312 308 306 304 304 303 303 303 302 301 301 301 301 301 301 301 301 300 300 300 300 300 301 301 301 301 301 302 302 302

GFSFLT1_850_thetae_105.txt.gz
Theta_e
344 343 343 346 347 344 344 344 344 344 343 341 341 342 343 340 343 344 344 343 344 346 345 344 343 343 342 344 344 343 343 341 341
343 342 343 345 346 346 344 344 343 344 343 343 341 342 343 341 340 344 344 344 345 345 347 346 345 343 343 344 344 342 343 343 341
344 343 344 344 343 345 345 345 344 344 344 343 343 342 343 341 340 342 344 343 344 345 346 345 345 344 345 346 346 344 341 341 341
346 344 343 342 343 344 345 345 344 345 344 343 344 342 343 342 341 341 341 343 344 346 345 345 346 346 346 346 346 346 342 342 342
348 346 345 342 342 343 343 343 344 345 344 343 343 344 343 343 343 341 341 341 343 345 345 347 347 346 346 346 347 346 344 342 343
345 345 345 344 343 342 342 343 343 342 342 343 344 345 344 343 343 343 340 341 342 343 341 340 345 344 345 345 344 344 344 342 342
342 342 343 344 345 346 345 344 344 343 344 344 344 345 343 343 343 342 343 341 337 338 338 340 341 346 345 346 346 347 346 346 344
341 342 343 343 345 344 345 344 340 340 343 340 342 342 343 342 342 342 344 344 341 340 340 340 341 341 343 341 342 346 347 346 345
337 339 340 341 343 345 343 340 338 336 336 339 341 342 342 342 341 341 341 340 340 341 341 341 342 342 341 342 342 343 341 344 345
336 334 337 339 341 342 341 337 335 337 339 339 342 342 341 342 340 341 339 340 339 336 339 339 340 341 342 343 343 343 343 342 344
332 333 335 335 338 339 341 341 342 341 342 342 342 341 341 341 341 340 335 339 337 334 334 336 338 339 338 339 340 342 342 342 343
333 331 333 335 336 337 337 337 338 338 338 339 339 339 338 338 339 339 338 338 337 337 335 337 337 338 338 338 339 339 340 341 342
329 333 333 332 331 331 331 331 331 333 332 332 334 332 334 335 336 335 334 334 335 335 333 334 337 338 338 338 338 338 338 338 340
330 330 329 327 325 324 322 321 320 320 320 322 323 323 323 325 326 326 326 326 327 329 329 331 335 337 334 330 332 335 334 334 333
330 328 326 325 323 322 320 318 317 316 315 315 314 314 314 314 314 315 315 316 317 320 326 328 330 331 328 326 321 325 325 323 322
329 328 325 323 321 318 316 314 313 312 311 311 311 311 311 311 311 311 312 312 313 317 320 322 323 322 323 322 324 324 323 322 320
324 324 321 318 317 315 314 313 311 310 309 308 307 307 308 309 310 310 311 312 312 312 313 313 314 315 315 315 314 314 313 313 312
320 319 318 316 315 315 314 312 308 306 305 305 305 305 305 306 307 307 308 309 310 310 310 310 310 310 309 308 307 306 306 305 305
323 320 316 315 315 314 312 308 305 304 304 304 304 304 304 304 303 303 303 303 303 302 302 302 302 302 302 302 302 302 302 302 302
319 318 316 315 314 310 306 305 304 303 303 303 302 302 302 301 301 301 300 300 300 300 300 300 300 300 300 300 300 301 301 301 301

GFSFLT1_850_thetae_111.txt.gz
Theta_e
345 345 346 345 345 345 347 346 346 345 350 352 351 350 349 350 350 350 350 348 350 347 350 347 351 350 352 351 352 351 352 350 349
344 347 344 345 345 347 346 348 348 348 352 352 351 349 349 349 350 349 351 351 351 351 350 348 352 349 349 351 351 352 351 348 349
344 346 346 346 343 344 349 346 349 349 350 351 350 349 349 349 349 350 350 351 345 349 350 352 351 351 351 350 353 353 350 351 350
346 346 346 347 343 345 347 348 349 350 350 353 352 351 351 349 347 347 348 350 350 351 351 347 349 351 352 352 351 352 347 350 351
348 348 346 346 345 349 350 352 353 353 352 353 354 352 352 351 351 348 347 348 349 350 350 351 351 353 350 352 353 351 352 352 350
349 349 349 348 348 351 353 352 353 351 351 352 354 353 353 351 350 350 349 347 347 349 353 352 352 351 353 353 354 355 352 352 352
350 351 350 349 347 346 350 350 348 349 350 349 348 352 351 351 352 352 351 348 347 348 349 352 352 353 352 352 351 353 353 352 353
353 353 352 350 351 351 348 344 343 344 345 343 342 344 343 346 349 350 351 351 350 348 347 350 350 351 350 352 351 353 352 352 353
351 350 349 352 352 351 350 349 344 344 343 343 343 339 342 342 344 347 350 348 346 347 349 350 350 350 350 351 350 345 345 344 351
346 347 344 345 347 350 351 349 347 348 344 343 341 342 341 341 345 346 346 346 348 347 347 349 347 348 345 343 340 341 341 341 343
345 344 340 342 343 345 349 348 346 346 345 344 343 342 342 342 342 342 342 343 345 344 345 345 345 345 342 342 342 342 342 343 344
342 341 336 339 342 344 344 344 343 342 341 339 342 343 343 342 341 341 340 340 339 335 335 339 338 340 340 339 339 339 341 342 348
338 336 332 337 340 340 340 340 340 338 337 338 340 341 342 341 341 341 340 338 338 337 336 336 336 337 338 338 338 338 339 340 341
332 330 335 336 335 335 335 336 336 339 340 340 339 340 338 338 338 337 336 336 337 337 337 336 337 338 338 337 336 335 336 337 336
331 332 332 331 332 330 329 330 331 333 333 332 333 334 333 332 331 329 332 334 334 333 333 336 337 333 330 332 333 334 332 332 330
327 327 326 325 326 324 320 319 320 322 323 323 321 322 322 322 323 323 326 327 328 332 331 330 330 328 325 322 323 323 325 326 324
326 325 323 321 320 318 316 315 313 313 314 316 315 315 315 316 317 319 322 323 324 324 325 324 324 323 322 319 320 319 317 314 311
323 322 321 320 319 318 314 315 313 312 313 314 316 317 317 317 315 319 315 316 316 319 320 319 319 317 316 315 311 308 306 304 303
322 320 318 316 316 315 314 313 311 313 314 314 315 315 315 315 315 314 312 311 311 311 312 312 311 308 305 304 302 302 302 302 302
321 319 319 317 315 312 308 306 306 311 311 313 314 313 311 311 312 311 311 307 305 304 303 302 302 301 301 301 301 301 301 301 301

GFSFLT1_850_thetae_114.txt.gz
Theta_e
344 345 346 345 344 348 346 348 349 349 348 343 343 346 346 348 349 351 350 346 351 346 350 348 350 347 346 346 349 350 350 344 342
345 347 341 346 349 347 347 347 348 350 348 342 347 349 348 347 349 348 350 349 343 345 349 351 347 348 351 346 350 349 352 342 348
346 345 345 345 345 345 344 344 346 349 348 345 346 349 347 346 346 345 350 348 347 351 349 344 341 350 349 349 349 347 348 348 350
345 341 342 347 346 347 345 348 348 351 350 344 347 350 347 347 346 346 349 348 347 348 347 340 350 351 352 347 344 345 348 346 349
347 345 346 348 347 347 343 347 348 352 349 345 346 348 346 348 346 347 348 347 348 350 350 345 346 347 347 349 349 350 346 342 351
347 346 346 347 344 350 350 346 347 348 339 352 348 348 350 349 350 349 346 347 346 347 351 347 350 349 349 347 346 348 349 346 344
348 347 348 347 352 351 346 341 352 347 353 352 353 351 351 352 350 352 349 348 347 345 348 348 349 350 347 348 350 349 349 350 346
350 349 349 348 350 353 352 352 350 351 349 350 350 349 348 349 351 349 349 351 349 345 348 345 346 347 349 350 349 349 350 348 347
354 350 349 350 350 352 349 346 344 343 346 345 342 343 342 346 348 346 345 347 349 349 346 346 347 348 349 347 350 344 345 346 343
352 351 351 350 352 352 351 347 344 343 341 344 344 343 342 340 341 342 343 344 347 349 347 349 348 349 349 348 345 342 341 344 343
348 347 346 347 348 350 349 349 348 347 345 344 344 343 342 342 342 346 346 347 348 346 345 343 341 342 340 342 340 340 341 342 341
344 342 342 342 344 348 349 349 349 348 346 346 346 344 342 342 341 340 340 342 344 344 342 344 343 341 340 340 340 340 341 341 342
338 335 337 340 342 343 344 346 345 345 344 344 341 341 342 342 341 341 341 337 340 340 339 336 335 331 331 335 337 339 340 340 344
334 333 336 337 339 340 341 343 343 342 340 338 341 341 341 341 341 340 340 339 338 337 336 336 337 337 337 337 337 337 338 339 339
331 333 333 334 335 336 337 337 337 336 337 338 339 337 339 338 337 335 336 336 337 337 337 336 335 336 335 335 335 333 333 333 333
328 329 329 330 331 329 329 329 332 334 332 331 333 333 333 333 332 332 333 334 335 333 334 334 331 328 326 326 331 331 329 328 328
324 323 323 322 322 321 318 317 317 322 323 321 323 323 323 323 323 325 326 326 329 329 329 329 328 327 325 323 323 324 322 318 314
324 323 321 320 319 316 314 314 313 313 313 313 313 315 316 316 317 320 323 324 324 326 326 325 324 323 322 319 314 309 307 306 305
324 322 321 320 318 316 315 312 311 311 315 317 314 312 314 317 318 317 317 319 319 317 322 321 320 319 314 312 310 303 302 302 302
320 318 316 316 312 311 308 308 311 309 311 315 315 315 315 315 315 314 312 308 310 309 311 313 312 308 304 302 302 301 301 302 302

GFSFLT1_850_thetae_117.txt.gz
Theta_e
346 346 344 345 345 345 346 350 349 348 346 340 342 344 343 344 345 341 348 347 346 349 349 347 350 349 346 344 343 346 344 343 344
345 346 344 345 344 343 349 346 346 349 347 343 337 343 345 344 345 348 347 347 344 347 348 348 350 349 347 346 345 347 343 343 341
345 345 344 344 346 346 346 347 346 350 347 345 340 334 340 344 346 347 345 349 347 344 348 350 347 345 346 345 346 349 346 344 348
343 346 345 345 345 346 346 344 348 350 349 347 341 335 340 342 341 342 347 346 347 345 346 347 342 346 349 349 349 348 348 347 346
343 345 345 343 346 348 346 344 345 348 351 347 342 342 346 341 343 342 342 345 346 345 345 345 339 348 352 351 346 343 343 344 345
345 344 345 342 340 346 348 345 343 349 348 345 345 345 348 345 347 344 346 344 344 342 346 345 343 345 345 346 346 346 347 348 342
346 345 342 344 346 347 348 346 345 350 348 344 345 345 349 346 348 347 348 348 347 345 341 347 347 348 348 348 347 347 348 348 347
347 347 345 348 348 348 346 345 349 348 346 342 346 344 347 347 347 347 348 347 347 347 346 344 343 348 348 346 347 347 346 347 345
349 349 351 351 350 348 347 345 343 339 347 348 345 343 345 346 347 347 347 347 348 348 346 347 344 347 346 347 347 345 344 345 343
347 350 351 350 351 349 347 346 345 339 347 347 347 346 345 345 342 342 344 346 346 345 344 346 346 346 346 348 346 345 343 343 344
348 348 347 349 349 347 349 347 348 345 346 347 345 344 343 342 342 341 341 342 342 343 344 346 344 345 347 344 345 343 340 340 343
344 344 344 345 348 350 349 348 347 345 344 344 344 344 343 342 341 341 341 345 343 344 343 346 345 340 336 337 341 341 341 341 340
342 340 341 341 344 348 347 349 348 348 346 346 345 344 343 341 339 339 340 337 340 342 340 341 338 336 334 331 333 338 341 340 340
338 336 337 336 340 341 347 348 347 348 346 345 345 343 341 341 340 340 340 340 339 338 338 338 337 336 334 333 334 336 339 340 340
332 334 335 334 336 338 339 341 343 343 343 342 341 341 341 340 339 340 340 338 339 338 337 336 337 336 337 336 336 336 335 336 335
333 333 332 332 333 335 335 335 336 337 337 337 337 338 339 338 338 338 337 337 337 336 335 335 334 334 334 333 333 333 332 332 331
330 329 328 328 328 330 331 331 331 333 332 331 333 333 334 334 334 333 333 334 334 333 332 330 328 327 327 327 326 326 326 324 322
323 322 321 319 319 319 319 318 320 322 323 323 321 321 322 325 326 327 329 330 330 329 329 328 327 326 326 324 316 311 310 309 308
323 321 320 319 316 314 314 313 313 314 314 313 313 314 314 316 317 322 323 324 324 324 325 326 324 324 321 316 314 310 304 303 303
323 321 320 318 316 313 311 312 312 315 316 317 316 316 318 316 314 314 312 315 319 319 316 321 320 319 316 309 304 302 302 302 304